Temp
63 63 64 63 62 61 60 61 59 55 56 59 60 59 61 63 64 65 64 62 61 59 58 59 59 60 61 61 60 61 61 61 60 60 61 61 61 60
63 62 62 62 62 61 60 60 61 59 54 55 57 59 61 64 66 64 65 62 59 59 59 58 57 58 58 58 59 59 59 59 58 58 58 58 58 58
61 62 60 60 60 58 60 58 58 59 58 57 58 59 59 61 61 62 62 62 62 59 59 57 56 56 56 57 57 57 57 57 56 56 56 56 57 57
60 60 59 60 58 58 60 59 59 59 61 56 55 56 56 55 57 58 61 63 63 59 57 56 55 55 54 54 54 54 54 54 54 54 55 55 55 55
59 60 59 59 57 59 59 59 59 60 60 59 54 53 54 55 55 55 56 57 62 59 56 55 55 55 54 53 53 52 51 51 51 51 53 53 53 53
56 57 58 59 59 58 59 58 58 59 57 56 54 53 54 52 55 56 55 55 56 59 56 55 54 54 54 54 54 54 52 51 50 50 49 49 49 50
54 55 56 57 57 57 58 57 57 57 56 56 54 53 53 54 55 54 54 53 53 54 54 54 54 54 54 53 56 55 53 50 49 48 48 48 46 47
54 53 54 54 53 50 52 51 53 56 54 55 53 54 52 53 52 53 52 52 52 52 53 52 52 52 54 55 52 50 49 49 49 48 48 47 47 46
52 52 54 54 53 54 50 50 50 49 52 55 54 54 53 52 51 49 49 51 53 51 52 52 51 52 53 55 49 49 49 48 47 47 47 46 46 44
51 51 52 52 52 53 53 53 53 52 53 56 56 56 55 53 53 53 51 50 49 50 50 52 50 52 53 53 47 47 47 46 45 46 46 45 45 44
51 51 51 51 46 45 53 52 51 50 47 44 45 45 44 43 48 51 50 51 51 51 49 52 49 51 50 52 54 47 46 45 45 45 45 45 44 44
52 51 47 50 43 43 52 52 53 53 51 50 50 47 45 46 45 52 51 52 50 49 51 51 48 49 49 50 52 52 52 46 44 44 44 45 43 48
54 54 53 43 42 42 46 51 52 50 48 50 50 50 49 49 50 50 50 53 51 51 52 51 48 46 49 50 50 50 50 50 49 48 44 43 42 43
55 55 53 44 42 41 44 43 42 45 51 50 49 49 49 50 50 49 49 50 52 53 51 50 50 49 47 46 48 50 50 49 47 48 46 44 43 42
55 50 45 44 42 42 41 41 40 49 49 48 49 50 51 52 49 48 49 49 49 50 51 50 51 49 49 48 49 47 48 48 46 47 46 46 44 46
48 51 48 46 43 46 46 46 48 49 49 49 50 52 51 50 50 50 51 50 48 50 49 49 50 49 48 47 47 47 46 46 46 46 46 45 45 45
47 48 48 48 50 50 48 48 48 46 47 49 48 50 51 52 51 51 50 51 49 51 50 49 49 48 50 48 44 44 44 43 44 45 44 43 43 44
49 49 48 48 50 50 49 50 47 45 48 49 50 50 50 51 51 50 51 50 49 50 47 50 47 46 45 46 48 46 43 43 45 45 43 41 41 45
51 49 50 50 50 50 50 48 46 49 50 48 48 47 46 47 45 48 50 48 46 47 47 49 46 46 44 41 45 45 44 44 44 41 41 42 40 42
51 53 53 52 52 50 48 48 49 48 47 46 44 45 45 45 45 45 46 46 47 49 46 45 43 44 43 40 39 42 39 43 42 42 41 42 40 40
50 50 49 51 51 51 50 49 47 46 46 44 44 43 44 44 44 46 47 41 42 45 44 44 43 37 40 39 35 37 40 39 41 41 41 38 39 38
52 52 51 50 49 49 48 47 47 45 46 44 44 44 45 45 46 46 47 46 45 46 46 45 41 41 38 35 35 36 37 38 40 40 41 40 37 33
49 49 50 50 48 48 47 45 45 45 45 45 45 46 46 45 45 45 46 45 45 45 44 41 39 37 36 35 34 35 33 35 39 40 40 40 40 40
MSLP
1018.10 1018.35 1018.70 1019.31 1019.85 1020.35 1020.89 1021.20 1022.10 1023.93 1024.69 1024.99 1025.21 1025.30 1025.20 1025.17 1025.35 1025.75 1025.96 1026.21 1026.42 1026.80 1027.04 1027.32 1027.49 1027.67 1027.84 1028.01 1028.10 1028.13 1028.26 1028.40 1028.47 1028.47 1028.41 1028.32 1028.14 1028.09
1018.35 1018.64 1019.07 1019.64 1020.30 1020.76 1021.22 1021.65 1021.97 1022.56 1023.99 1024.98 1025.41 1025.42 1025.53 1025.39 1025.53 1025.60 1025.82 1026.09 1026.47 1026.80 1027.18 1027.42 1027.56 1027.64 1027.75 1027.94 1028.06 1028.33 1028.54 1028.71 1028.82 1028.75 1028.63 1028.53 1028.43 1028.29
1018.80 1019.11 1019.74 1020.20 1020.75 1021.18 1021.62 1022.08 1022.26 1022.53 1023.78 1025.32 1025.47 1025.63 1025.74 1025.57 1025.65 1025.85 1026.07 1026.27 1026.62 1026.98 1027.24 1027.45 1027.50 1027.58 1027.79 1028.08 1028.39 1028.58 1028.74 1028.96 1028.92 1028.94 1028.90 1028.80 1028.63 1028.38
1019.31 1019.68 1020.05 1020.30 1021.13 1021.50 1021.85 1022.22 1022.63 1022.90 1023.21 1024.70 1025.47 1025.87 1026.09 1026.34 1026.30 1026.26 1026.47 1026.70 1026.84 1027.17 1027.31 1027.46 1027.54 1027.69 1027.85 1028.18 1028.51 1028.72 1028.88 1028.90 1028.81 1029.02 1028.95 1028.77 1028.61 1028.33
1019.64 1020.10 1020.65 1021.02 1021.55 1021.72 1021.97 1022.34 1022.73 1023.07 1023.36 1024.14 1025.45 1026.11 1026.41 1026.58 1026.75 1026.97 1027.06 1027.25 1027.28 1027.55 1027.72 1027.82 1027.92 1028.05 1028.24 1028.36 1028.50 1028.69 1028.85 1028.78 1028.97 1029.11 1028.97 1028.75 1028.51 1028.26
1020.13 1020.37 1020.66 1020.89 1021.13 1021.64 1022.09 1022.53 1022.96 1023.40 1023.92 1024.42 1025.21 1025.92 1026.31 1026.89 1026.92 1027.13 1027.59 1027.66 1027.73 1027.76 1027.99 1028.02 1028.05 1028.14 1028.19 1028.21 1028.29 1028.46 1028.59 1028.76 1028.80 1028.74 1028.67 1028.52 1028.25 1028.02
1020.68 1020.86 1021.08 1021.28 1021.57 1021.74 1022.17 1022.80 1023.24 1023.65 1024.15 1024.76 1025.44 1026.02 1026.42 1026.67 1026.69 1027.00 1027.27 1027.61 1027.85 1027.83 1028.04 1028.26 1028.22 1028.18 1028.16 1028.19 1028.09 1028.15 1028.35 1028.42 1028.39 1028.34 1028.21 1028.02 1027.87 1027.71
1021.47 1021.73 1021.93 1022.01 1022.21 1022.39 1022.52 1023.06 1023.37 1023.60 1024.08 1024.66 1025.20 1025.34 1025.72 1026.03 1026.47 1026.63 1027.05 1027.65 1027.84 1027.79 1027.81 1028.00 1028.07 1028.01 1027.93 1027.84 1027.77 1027.80 1027.92 1028.04 1027.99 1027.88 1027.74 1027.58 1027.46 1027.14
1021.90 1022.11 1022.30 1022.48 1022.51 1022.75 1023.11 1023.30 1023.54 1023.60 1023.49 1023.87 1024.41 1024.70 1025.04 1025.21 1025.80 1026.48 1026.66 1026.88 1026.93 1027.27 1027.50 1027.63 1027.94 1027.61 1027.51 1027.37 1027.39 1027.54 1027.63 1027.56 1027.56 1027.48 1027.31 1027.15 1026.79 1026.28
1022.22 1022.43 1022.57 1022.78 1022.86 1022.98 1023.27 1023.54 1023.74 1023.86 1023.88 1023.83 1023.91 1023.95 1024.05 1024.44 1024.82 1025.18 1025.93 1026.60 1027.04 1027.07 1027.22 1027.02 1027.30 1027.14 1027.13 1026.99 1026.95 1026.99 1027.08 1027.13 1027.10 1027.06 1026.86 1026.57 1026.02 1025.52
1022.28 1022.49 1022.65 1022.97 1023.23 1023.34 1023.48 1023.93 1024.24 1024.36 1024.58 1024.54 1024.42 1024.31 1024.41 1024.67 1024.78 1025.32 1025.90 1026.24 1026.35 1026.44 1026.68 1026.44 1026.56 1026.58 1026.70 1026.42 1026.54 1026.67 1026.59 1026.63 1026.63 1026.57 1026.37 1025.92 1025.40 1024.84
1021.99 1022.11 1022.43 1022.72 1023.35 1023.64 1023.70 1023.97 1024.11 1024.19 1024.29 1024.28 1024.26 1024.45 1024.51 1024.68 1024.80 1024.42 1024.80 1025.10 1025.40 1025.68 1025.68 1026.18 1026.08 1026.29 1026.16 1025.90 1025.79 1025.98 1025.97 1025.75 1025.90 1025.84 1025.64 1025.36 1024.94 1024.30
1021.47 1021.67 1022.13 1022.77 1023.21 1023.47 1023.28 1023.53 1023.60 1023.69 1023.89 1024.02 1024.15 1024.23 1024.32 1024.41 1024.32 1024.32 1024.09 1023.78 1024.10 1024.20 1024.20 1024.70 1025.02 1025.49 1025.45 1025.46 1025.35 1025.54 1025.57 1025.08 1025.26 1025.14 1024.89 1024.62 1024.39 1024.31
1020.86 1021.39 1021.87 1022.25 1022.60 1022.78 1022.94 1022.92 1023.27 1023.44 1023.61 1023.95 1024.08 1023.89 1023.85 1023.79 1023.73 1023.82 1023.96 1024.05 1023.84 1023.60 1023.69 1023.90 1023.98 1024.14 1024.31 1024.71 1024.53 1024.56 1024.55 1024.64 1024.67 1024.28 1024.20 1024.01 1023.88 1023.75
1020.72 1021.00 1021.45 1021.58 1021.93 1022.30 1022.51 1022.65 1023.16 1023.22 1023.31 1023.39 1023.15 1022.87 1022.94 1022.83 1023.33 1023.72 1023.67 1023.58 1023.71 1023.55 1023.41 1023.25 1022.93 1023.35 1023.57 1023.41 1023.37 1023.64 1023.79 1023.80 1024.35 1024.06 1023.92 1023.79 1023.64 1023.32
1020.59 1020.93 1021.14 1021.51 1021.77 1021.91 1022.16 1022.37 1022.47 1022.54 1022.58 1022.28 1021.87 1021.83 1022.17 1022.55 1022.58 1022.82 1022.99 1023.04 1023.24 1022.78 1022.81 1022.93 1022.87 1022.99 1022.87 1022.62 1022.78 1022.98 1023.42 1023.54 1023.68 1023.54 1023.46 1023.36 1023.07 1022.88
1020.21 1020.66 1020.83 1020.94 1021.11 1021.22 1021.26 1021.53 1021.84 1022.06 1021.96 1021.90 1022.12 1021.71 1021.61 1021.67 1021.42 1021.57 1021.83 1022.06 1022.10 1021.72 1021.68 1021.91 1021.99 1022.22 1021.83 1021.80 1022.16 1022.23 1022.88 1023.24 1023.38 1023.35 1023.21 1022.98 1022.55 1022.24
1019.70 1019.67 1020.08 1020.45 1020.59 1020.68 1020.91 1021.08 1021.04 1020.75 1021.47 1021.53 1021.32 1020.95 1020.69 1020.61 1020.51 1020.54 1020.67 1020.80 1020.63 1020.42 1020.38 1020.24 1020.83 1021.50 1021.67 1021.55 1021.32 1021.47 1022.14 1022.37 1022.46 1022.69 1022.92 1022.65 1021.86 1021.21
1019.03 1019.27 1019.52 1019.66 1019.91 1019.97 1020.14 1020.28 1020.45 1020.38 1020.83 1021.01 1021.02 1020.82 1020.62 1020.43 1020.60 1020.10 1019.98 1019.98 1019.76 1019.59 1019.43 1019.68 1020.18 1020.53 1020.78 1020.65 1020.92 1021.51 1021.41 1021.72 1021.77 1022.29 1022.18 1021.88 1021.56 1020.81
1018.71 1018.91 1019.16 1019.27 1019.35 1019.97 1020.27 1020.36 1019.78 1020.60 1020.83 1020.67 1020.52 1020.42 1020.19 1020.15 1019.94 1019.66 1019.42 1019.17 1018.98 1018.77 1018.90 1019.24 1019.32 1019.45 1019.92 1020.33 1021.13 1021.38 1021.32 1021.34 1021.21 1021.48 1021.71 1021.38 1020.88 1020.31
1018.95 1018.77 1019.07 1019.51 1018.74 1019.66 1019.95 1020.28 1020.52 1020.85 1020.55 1020.40 1020.25 1020.29 1020.15 1019.93 1019.62 1019.26 1018.86 1018.67 1018.59 1018.53 1018.69 1018.85 1018.77 1019.21 1020.00 1020.31 1021.03 1021.01 1021.06 1021.03 1021.28 1021.36 1021.10 1020.95 1020.36 1019.93
1019.33 1019.42 1018.89 1019.18 1019.61 1019.86 1020.22 1020.41 1020.48 1020.44 1020.43 1020.36 1020.07 1019.91 1019.70 1019.68 1019.20 1018.74 1018.57 1018.51 1018.44 1018.37 1018.25 1018.57 1019.02 1019.62 1019.83 1020.12 1020.18 1020.25 1020.47 1020.88 1020.90 1020.73 1020.33 1020.46 1020.24 1019.40
1019.66 1021.12 1020.54 1020.20 1019.85 1020.10 1020.38 1020.44 1020.59 1020.47 1020.14 1019.82 1019.59 1019.44 1019.23 1018.97 1018.83 1018.75 1018.57 1018.57 1018.59 1018.48 1018.60 1018.69 1018.90 1019.05 1018.85 1019.22 1019.74 1020.05 1020.29 1020.61 1020.36 1019.88 1019.40 1019.08 1018.86 1018.49
Wind_Speed
5 7 9 6 6 4 3 3 5 4 1 1 1 2 2 2 2 4 5 8 10 10 9 8 7 8 8 9 11 12 13 12 11 10 10 9 9 9
4 7 5 4 5 4 4 3 2 4 5 1 0 1 1 2 3 4 4 7 11 10 10 8 8 8 9 11 11 11 12 11 9 9 9 8 8 8
5 7 6 5 4 4 3 2 3 3 7 3 1 2 3 3 4 4 5 6 7 11 10 10 9 9 9 12 11 9 8 8 9 9 9 8 7 8
7 8 6 5 5 4 4 4 3 3 7 6 2 2 3 2 3 6 5 5 6 9 11 10 10 9 9 9 9 8 8 7 8 6 6 7 8 8
6 9 9 9 6 4 3 4 3 3 3 5 4 1 2 2 5 4 4 4 4 11 10 10 9 8 7 8 9 8 6 6 3 3 4 6 6 7
6 6 6 5 6 6 4 4 4 5 4 4 3 3 2 2 2 4 4 2 3 4 7 6 6 7 8 7 10 8 5 3 3 5 6 7 7 7
6 6 6 6 7 5 4 5 6 4 4 4 3 2 3 3 4 3 3 2 2 2 4 2 2 3 3 6 8 8 6 6 7 7 7 6 6 4
5 5 4 6 8 10 9 11 4 6 6 5 3 4 4 3 4 4 4 3 4 4 5 5 3 4 5 4 8 8 8 6 5 6 6 6 4 4
4 4 4 4 5 5 9 10 9 8 5 6 5 5 5 7 7 5 5 4 4 3 4 5 4 5 5 5 7 6 5 6 6 6 7 5 4 4
5 5 5 4 3 5 5 5 3 3 2 3 4 5 5 7 8 6 6 4 1 3 4 5 4 5 4 5 7 6 5 5 5 6 6 2 7 6
4 4 5 5 6 7 5 5 4 2 4 4 2 3 7 8 7 7 6 6 4 5 6 4 5 4 3 4 5 6 6 5 5 5 4 7 9 10
4 5 7 6 9 8 5 4 3 2 3 2 2 4 4 7 10 4 7 6 3 3 6 6 4 4 3 3 4 4 4 6 5 4 3 10 10 8
4 4 4 8 9 10 8 5 5 4 3 3 3 3 4 6 7 7 7 6 6 5 5 7 6 4 3 2 3 4 5 2 3 3 4 6 9 8
5 2 3 10 11 10 7 7 8 5 2 3 4 5 6 7 7 7 7 8 5 6 5 8 4 6 6 4 4 3 5 3 3 2 5 7 8 8
0 3 6 8 8 5 9 9 7 5 4 4 7 8 6 6 4 3 7 7 8 7 6 11 6 7 6 6 4 5 3 2 3 2 4 6 6 7
2 2 3 3 4 4 4 6 6 6 6 8 9 7 4 4 7 6 7 7 6 8 9 10 10 8 6 7 5 3 4 3 3 3 2 6 6 6
6 3 3 3 3 5 6 6 5 5 8 7 7 8 8 8 8 7 8 7 9 10 9 7 10 11 8 7 6 6 5 3 4 4 2 6 6 7
3 3 3 4 6 5 5 5 5 7 7 7 8 8 9 9 9 7 8 9 11 11 10 10 8 6 4 6 9 4 4 3 4 3 4 5 7 7
3 3 4 5 4 5 4 3 5 3 5 6 7 7 7 7 7 8 8 8 10 10 10 7 7 8 9 7 3 8 4 4 2 4 5 5 7 8
3 3 3 3 2 3 2 4 2 3 4 5 5 6 6 7 7 8 8 9 10 10 8 5 5 8 8 5 4 3 9 5 4 6 6 4 6 14
3 3 2 3 2 1 2 3 3 5 4 4 4 5 6 6 7 8 8 9 9 6 8 9 5 5 3 5 3 5 3 8 8 7 5 6 6 4
3 1 3 3 2 2 1 1 3 3 4 4 5 5 6 6 8 8 8 9 7 8 7 2 4 4 4 7 7 6 2 2 10 18 14 12 5 5
6 6 4 4 4 4 4 3 2 2 4 4 4 5 5 5 6 6 7 7 7 4 3 7 6 3 4 4 5 3 3 8 5 5 5 13 17 20
Wind_Direction
132 133 137 125 141 111 110 121 124 137 113 145 126 30 62 107 144 134 146 160 145 142 135 125 119 117 117 108 113 104 82 70 58 48 38 29 23 11
132 117 106 106 121 116 124 92 94 131 119 84 91 118 194 124 170 141 141 147 141 134 128 125 121 112 105 112 110 102 87 78 65 49 38 29 19 12
98 115 108 122 123 107 108 99 95 87 119 111 90 47 71 123 93 90 111 121 131 129 124 116 102 95 102 117 96 89 113 78 68 48 37 28 11 353
120 115 113 97 113 141 138 129 140 134 130 128 98 73 77 60 92 90 94 108 126 126 118 108 104 102 104 132 104 98 106 94 75 50 33 15 357 343
119 134 142 142 143 143 142 128 114 112 96 136 130 134 101 59 77 72 90 80 97 110 97 97 97 104 105 110 117 99 94 87 76 348 337 329 325 323
81 91 103 105 130 132 127 144 130 125 108 117 103 104 98 77 97 147 139 93 123 120 90 109 111 118 121 123 138 126 116 163 240 270 276 280 292 303
63 64 63 83 103 131 134 150 145 132 135 133 118 125 159 172 186 155 158 151 168 174 159 163 138 139 137 149 156 175 191 224 238 250 257 277 280 290
104 82 72 72 66 55 72 80 94 148 151 149 159 187 187 187 163 175 143 170 212 188 186 182 186 182 178 181 182 202 217 230 245 258 275 270 279 273
115 104 80 61 74 90 84 88 80 89 157 155 168 194 181 195 155 176 192 188 201 166 182 192 198 196 198 204 214 221 244 234 242 256 262 258 283 287
141 143 133 132 128 134 125 112 108 80 94 177 194 196 212 176 183 177 171 160 120 190 206 211 175 212 203 223 225 230 257 253 252 264 269 305 338 336
156 165 165 165 173 156 134 140 147 152 56 44 338 248 193 171 155 139 165 170 201 211 193 207 186 214 213 225 216 229 264 263 277 285 295 343 344 339
197 197 195 176 168 174 152 162 179 212 183 172 121 87 125 168 184 205 165 190 178 212 198 199 173 186 220 204 206 218 227 232 275 288 324 337 348 349
210 205 201 187 178 188 183 179 195 162 182 197 195 189 193 197 206 217 207 192 189 227 177 180 179 176 224 219 214 225 227 218 248 244 298 330 332 333
216 173 194 191 198 199 192 207 188 163 176 220 243 239 230 224 225 221 226 229 240 246 175 187 186 186 185 191 225 199 217 225 257 285 340 334 326 309
204 166 178 203 209 208 223 217 187 208 214 222 236 242 229 236 235 239 242 241 249 245 217 203 200 187 202 206 204 202 230 206 248 268 320 321 318 319
145 145 205 199 211 224 225 224 229 221 220 232 240 250 242 220 231 214 232 221 231 240 219 219 216 194 217 221 203 218 211 235 195 241 303 300 304 300
146 180 200 197 219 236 237 234 229 226 231 240 258 258 255 246 238 211 224 220 229 232 227 211 222 226 223 180 199 215 226 229 245 259 289 296 291 293
170 208 208 210 236 253 269 263 223 196 243 248 246 249 252 252 254 234 230 228 237 234 229 220 191 197 208 230 219 191 196 227 229 247 267 284 290 297
216 196 217 196 233 229 229 237 252 240 239 242 258 260 260 261 254 255 253 246 248 248 242 232 208 207 217 228 134 213 195 233 228 273 251 252 283 291
218 246 241 208 201 253 277 277 340 299 263 254 249 257 263 264 267 262 258 255 253 257 248 211 197 197 215 211 242 251 210 231 228 262 273 268 256 271
231 256 217 276 100 325 330 332 297 275 296 302 282 271 267 260 264 265 267 261 264 257 249 230 198 146 114 103 210 218 223 230 239 255 276 289 289 288
39 0 27 41 31 43 4 291 322 329 319 298 300 295 287 271 276 283 281 277 263 256 244 197 130 178 194 202 213 217 198 244 245 245 249 241 263 279
61 5 24 45 60 55 47 45 21 0 10 354 336 315 303 297 291 290 288 273 272 264 289 304 281 233 217 188 198 212 214 248 263 275 264 224 244 249